{"data":{"norad_id":69702,"epoch":"2026-07-24T23:12:00.629280Z","epoch_age_seconds":4997793,"freshness":"OLD","line1":"1 69702U 26146B   26205.96667395  .00695255  18727-3  12533-2 0  9995","line2":"2 69702  42.0718 302.0306 0134533  89.4480 272.1791 15.86155451  4457","mean_motion":15.86155451,"eccentricity":0.0134533,"inclination_deg":42.0718,"raan_deg":302.0306,"arg_perigee_deg":89.448,"mean_anomaly_deg":272.1791,"bstar":0.0012533,"rev_number":445,"period_min":90.785553149418,"perigee_km":223.05438411674,"apogee_km":403.09210163774,"semimajor_km":6691.2102428772,"source":"CELESTRAK","updated_at":"2026-07-26T09:00:30.502627Z"}}